Flag for Switzerland Weather past 2 weeks in Martigny, Valais, Switzerland

Now
54 °F

Light rain. Overcast.


Feels Like: 54 °F
Forecast: 50 / 72 °F
Wind: 1 mph from South

Location: Sion

Current Time: May 26, 2015 at 8:51:04 AM

Latest Report: May 26, 2015 at 8:00 AM


Visibility: 6 mi

Pressure: 29.98 "Hg

Humidity: 92%

Dew point: 52 °F

Location of MartignyLocation

Historic Weather in Martigny — Graph

°F

Martigny temperature yesterday

Maximum temperature yesterday: 71 °F (at 2:00 PM)
Minimum temperature yesterday: 55 °F (at 10:40 PM)
Average temperature yesterday: 62 °F

Past Weeks' High & Low Weather Summary

 TemperatureHumidityPressure
High87 °F (May 13, 6:00 PM)95% (May 16, 3:00 AM)30.34 "Hg (May 16, 3:00 AM)
Low39 °F (May 16, 4:00 AM)21% (May 13, 6:00 PM)29.67 "Hg (May 14, 5:00 PM)
Average60 °F59%30.01 "Hg
* Reported May 11 7:00 AM — May 26 7:00 AM, Martigny, Weather by CustomWeather, © 2015

Note: Actual official high and low records may vary slightly from our data, if they occured in-between our weather recording intervals... More about our weather records

Advertising

Martigny weather history for previous 24 hours

 ConditionsComfort  
Time TempWeatherWind HumidityBarometerVisibility
7:00 AM
Tue, May 26
53 °FCool.1 mph91%29.97 "HgN/A
6:00 AM52 °FCool.2 mph92%29.96 "HgN/A
4:00 AM51 °FCool.1 mph93%29.97 "HgN/A
3:00 AM52 °FCool.2 mph91%29.97 "HgN/A
2:00 AM51 °FPassing clouds.No wind94%29.99 "Hg9 mi
1:00 AM52 °FCool.1 mph91%30.00 "HgN/A
12:00 AM51 °FCool.2 mph94%30.00 "HgN/A
10:40 PM
Mon, May 25
55 °FRain. Overcast.12 mph84%29.98 "Hg9 mi
10:00 PM56 °FCool.8 mph82%29.97 "HgN/A
9:00 PM58 °FCool.15 mph79%29.92 "HgN/A
8:00 PM63 °FOvercast.8 mph53%29.88 "Hg12 mi
7:00 PM66 °FMild.9 mph45%29.86 "HgN/A
6:00 PM65 °FMild.15 mph47%29.86 "HgN/A
5:00 PM66 °FOvercast.18 mph48%29.86 "Hg12 mi
4:00 PM69 °FMild.16 mph41%29.85 "HgN/A
3:00 PM71 °FMild.12 mph38%29.85 "HgN/A
2:00 PM71 °FPartly sunny.12 mph35%29.87 "Hg12 mi
1:00 PM69 °FMild.12 mph41%29.90 "HgN/A
12:00 PM67 °FMild.8 mph46%29.93 "HgN/A
11:00 AM65 °FMild.6 mph51%29.94 "HgN/A
10:00 AM62 °FRefreshingly cool.2 mph57%29.97 "HgN/A
9:00 AM60 °FCool.1 mph62%29.99 "HgN/A
8:00 AM57 °FOvercast.1 mph70%30.00 "Hg12 mi
Weather by CustomWeather, © 2015

See weather overviewHow to use our weather pages